Regional Weather Roundup
Issued by NWS

Home | Current Version | Previous Version | Graphics & Text | Print | Product List | Glossary On
Versions: 1 2 3 4 5 6 7 8 9 10 11 12 13 14 15 16 17 18 19 20 21 22 23 24 25 26 27 28 29 30 31 32 33 34 35 36 37 38 39 40 41 42 43 44 45 46 47 48 49 50
226
ASUS44 KLIX 242101
RWRLA
LOUISIANA WEATHER ROUNDUP
NATIONAL WEATHER SERVICE NEW ORLEANS LA
400 PM CDT FRI OCT 24 2014

NOTE: "FAIR" INDICATES FEW OR NO CLOUDS BELOW 12,000 FEET WITH NO
      SIGNIFICANT WEATHER AND/OR OBSTRUCTIONS TO VISIBILITY.
      SKY/WX - SKY CONDITION AND SIGNIFICANT WEATHER.
      TMP - AIR TEMPERATURE.    DP   - DEWPOINT TEMPERATURE.
      RH  - RELATIVE HUMIDITY.  PRES - PRESSURE.
      HX  - HEAT INDEX.         WCI  - WIND CHILL INDEX.

*  THESE STATIONS ARE NOT NWS OR FAA STATIONS AND ARE NOT UNDER
   NWS QUALITY CONTROL.

LAZ040-048-061>063-065-066-069-242200-
SOUTHEAST LOUISIANA

CITY           SKY/WX    TMP DP  RH WIND       PRES   REMARKS
N.O. AUDUBON     N/A     75 N/A N/A MISG        N/A
N.O. INTL ARPT MOSUNNY   76  48  37 N6        30.05S
N.O. LAKEFRONT SUNNY     73  52  47 W10       30.05S
N.O. DOWNTOWN* FAIR      73  45  35 N9        30.05S
SLIDELL        SUNNY     78  44  29 N7        30.03S
BATON ROUGE    SUNNY     77  45  32 NE7       30.06S
BOOTHVILLE     SUNNY     72  54  53 N8        30.03S
BELLE CHASSE   MOSUNNY   76  44  32 N6        30.04S
BOGALUSA*        N/A     78  41  27 N10       30.06S
NEW ROADS*     FAIR      74  51  44 NW7       30.07S
GONZALES*      FAIR      75  44  32 N8        30.04F
HAMMOND*       NOT AVBL
HOUMA*         SUNNY     77  43  29 N10       30.04S
PORT FOURCHON* CLEAR     75  46  35 N9        30.06S

$$

LAZ041-044-053-054-242200-
SOUTHWEST LOUISIANA

CITY           SKY/WX    TMP DP  RH WIND       PRES   REMARKS
LAKE CHARLES   SUNNY     77  45  32 NE8       30.08S
LAFAYETTE      SUNNY     77  44  30 N8        30.07S
PATTERSON      SUNNY     75  52  43 N9        30.07F
SALT POINT       N/A     76  50  40 VRB7      30.04F
NEW IBERIA     SUNNY     77  49  37 N7        30.07S
CHENAULT AIRPK NOT AVBL

$$

LAZ027-028-242200-
CENTRAL LOUISIANA

CITY           SKY/WX    TMP DP  RH WIND       PRES   REMARKS
FORT POLK      SUNNY     74  47  37 N8        30.09S
ALEXANDRIA INT SUNNY     77  46  33 N7        30.09R
ALEXANDRIA     SUNNY     74  48  39 VRB6      30.10S

$$

LAZ001-002-242200-
NORTHWEST LOUISIANA

CITY           SKY/WX    TMP DP  RH WIND       PRES   REMARKS
SHREVEPORT     MOSUNNY   78  53  41 VRB3      30.11S
BARKSDALE AFB  SUNNY     78  52  40 NE6       30.11S
DTN SHREVEPORT SUNNY     77  51  40 VRB3      30.11F

$$

LAZ014-016-242200-
NORTHEAST LOUISIANA

CITY           SKY/WX    TMP DP  RH WIND       PRES   REMARKS
MONROE         SUNNY     74  47  38 N5        30.12S
TALLULAH       SUNNY     74  43  32 N6        30.10S

$$




USA.gov is the U.S. government's official web portal to all federal, state and local government web resources and services.